Simultaneous Nadir Overpasses (SNOs) Predictions

Prediction of SNOs between GOES-17 and NOAA-20 Satellite Orbit:

Table of predicted SNOs for the next 14.0 days since TLE Epoch: 10/15/2022
Index Date Time (GOES-17) GOES-17 Lat,Lon NOAA-20 Lat,Lon Distance(km) Time Diff (sec)
1 10/15/2022 10:27:16 0.06,-137.33 -0.36,-135.33 227.56 80
2 10/16/2022 22:46:33 -0.05,-137.33 -0.78,-140.65 377.69 80
3 10/17/2022 22:30:27 -0.05,-137.33 0.19,-136.11 138.22 80
4 10/19/2022 10:49:36 0.04,-137.31 0.93,-141.39 463.79 80
5 10/20/2022 10:33:30 0.04,-137.31 -0.04,-136.85 51.82 80
6 10/22/2022 22:34:02 -0.04,-137.28 -0.10,-137.63 38.79 80
7 10/23/2022 22:17:57 -0.04,-137.27 0.87,-133.09 476.56 80
8 10/25/2022 10:37:04 0.04,-137.25 0.30,-138.36 126.41 80
9 10/26/2022 10:20:59 0.04,-137.23 -0.73,-133.83 388.34 80
10 10/27/2022 22:40:15 -0.04,-137.20 -0.49,-139.12 219.47 80
11 10/28/2022 22:24:10 -0.04,-137.18 0.55,-134.60 294.62 80
